If you wish to contribute or participate in the discussions about articles you are invited to join SKYbrary as a registered user

 Actions

Misawa Airport

From SKYbrary Wiki

RJSM
Airport
ICAO: RJSM – IATA: MSJ
Summary
Name Misawa Airport
Region Asia and Pacific
Territory Japan JP.gif
Location Misawa, Aomori Prefecture
Serving Misawa
Elevation 36.271 m <br />119 ft36.271 m <br />
Coordinates 40° 42' 15.34" N, 141° 22' 10.49" E
Runways
Designator Length Width Surface ROPS
10/28 3048 m10,000 ft <br /> 46 m150.919 ft <br /> ASP yes/yes


METAR
Observation RJSM 222200Z 13008KT 5000 BR SCT003 BKN005 OVC008 17/16 Q1012
Station Misawa Ab
Date/Time 22 June 2021 22:00:00
Wind direction 130°
Wind speed 08 kts
Lowest cloud amount scattered clouds
Temperature 17°C
Dew point 16°C
Humidity 93%
QNH 1012 hPa
Weather condition n/a

Misawa Airport is an airport in Misawa, a city in the Aomori Prefecture of Japan. It shares facilities and airport codes with the Misawa Air Base.

Climatology

Humid Sub-tropical climate (Köppen climate classification Cfa)

Maps

Terrain

Loading map...

Airport Layout

Loading map...


Accidents & Serious Incidents at or in vicinity of RJSM

None on SKYbrary